Weather History for Troy, AL

Change the Weather History Date:

Monday, January 28, 2013

  Actual Average Record
Temperature  
Mean Temperature 63 °F 47 °F  
Max Temperature 74 °F 59 °F 74 °F (2013)
Min Temperature 52 °F 35 °F 23 °F (2014)
Degree Days  
Heating Degree Days 2 18  
Month to date heating degree days 332 524  
Since 1 July heating degree days 1171 1441  
Growing Degree Days 13 (Base 50)    
Moisture  
Dew Point 52 °F    
Average Humidity 71    
Maximum Humidity 93    
Minimum Humidity 49    
Precipitation  
Precipitation 0.00 in 0.16 in 0.34 in (2014)
Month to date precipitation 2.09 4.07  
Year to date precipitation 2.09 4.07  
Snow  
Snow 0.00 in - - ()
Month to date snowfall 0.0  
Since 1 July snowfall 0.0  
Snow Depth 0.00 in    
Sea Level Pressure  
Sea Level Pressure 30.31 in    
Wind  
Wind Speed 4 mph (SE)    
Max Wind Speed 13 mph    
Max Gust Speed 16 mph    
Visibility 5 miles    
Events      
T = Trace of Precipitation, MM = Missing Value Source: NWS Daily Summary

Daily Weather History Graph

Daily Weather History Graph

Search for Another Location

Airport:

Trip Planner

Search our weather history database for the weather conditions in past years. The results will help you decide how hot, cold, wet, or windy it might be!

Date:

Astronomy

Jan. 28, 2013 Rise Set
Actual Time 6:39 AM CST 5:14 PM CST
Civil Twilight 6:13 AM CST 5:40 PM CST
Nautical Twilight 5:44 AM CST 6:10 PM CST
Astronomical Twilight 5:15 AM CST 6:38 PM CST
Moon 6:58 PM CST (1/28) 7:13 AM CST (1/28)
Length of Visible Light 11h 26m
Length of Day
10h 35m
Full, 98% of the Moon is Illuminated
Jan 28
Full
Feb 3
Last Quarter
Feb 10
New
Feb 17
First Quarter
Feb 25
Full

Hourly Weather History & Observations

Time (CST) Temp. Dew Point Humidity Pressure Visibility Wind Dir Wind Speed Gust Speed Precip Events Conditions
12:53 AM 55.0 °F 45.0 °F 69% 30.32 in 7.0 mi East 3.5 mph - N/A   Mostly Cloudy
1:53 AM 53.1 °F 46.0 °F 77% 30.33 in 7.0 mi North 3.5 mph - N/A   Mostly Cloudy
2:53 AM 53.1 °F 46.0 °F 77% 30.31 in 7.0 mi ENE 3.5 mph - N/A   Overcast
3:35 AM 53.6 °F 46.4 °F 77% 30.32 in 7.0 mi East 3.5 mph - N/A   Overcast
3:53 AM 54.0 °F 46.0 °F 75% 30.31 in 7.0 mi East 3.5 mph - N/A   Overcast
4:16 AM 53.6 °F 46.4 °F 77% 30.31 in 6.0 mi Calm Calm - N/A   Haze
4:53 AM 55.0 °F 48.0 °F 77% 30.30 in 7.0 mi ESE 8.1 mph - N/A   Overcast
5:53 AM 54.0 °F 48.9 °F 83% 30.30 in 6.0 mi East 6.9 mph - N/A   Haze
6:43 AM 55.4 °F 51.8 °F 88% 30.34 in 5.0 mi SE 4.6 mph - N/A   Overcast
6:53 AM 55.0 °F 51.1 °F 86% 30.34 in 5.0 mi ESE 3.5 mph - N/A   Overcast
7:23 AM 55.4 °F 51.8 °F 88% 30.35 in 2.0 mi ESE 3.5 mph - N/A   Overcast
7:27 AM 55.4 °F 51.8 °F 88% 30.35 in 1.5 mi ESE 3.5 mph - N/A   Overcast
7:31 AM 55.4 °F 51.8 °F 88% 30.35 in 1.2 mi ESE 3.5 mph - N/A   Overcast
7:46 AM 55.4 °F 53.6 °F 94% 30.34 in 1.0 mi ESE 6.9 mph - N/A   Overcast
7:53 AM 55.0 °F 53.1 °F 93% 30.34 in 1.0 mi ESE 5.8 mph - N/A   Overcast
8:04 AM 55.4 °F 53.6 °F 94% 30.35 in 0.8 mi ESE 3.5 mph - N/A   Overcast
8:13 AM 55.4 °F 53.6 °F 94% 30.36 in 1.0 mi ESE 3.5 mph - N/A   Overcast
8:26 AM 55.4 °F 53.6 °F 94% 30.35 in 1.5 mi ESE 4.6 mph - N/A   Overcast
8:42 AM 55.4 °F 53.6 °F 94% 30.35 in 1.8 mi ESE 4.6 mph - N/A   Overcast
8:53 AM 57.0 °F 53.1 °F 87% 30.36 in 2.0 mi SE 4.6 mph - N/A   Overcast
9:37 AM 57.2 °F 53.6 °F 88% 30.37 in 3.0 mi ESE 5.8 mph - N/A   Haze
9:53 AM 59.0 °F 53.1 °F 81% 30.35 in 3.0 mi ESE 5.8 mph - N/A   Haze
10:12 AM 60.8 °F 53.6 °F 77% 30.36 in 4.0 mi SE 6.9 mph - N/A   Haze
10:53 AM 62.1 °F 54.0 °F 75% 30.34 in 4.0 mi SE 5.8 mph - N/A   Haze
11:05 AM 64.4 °F 53.6 °F 68% 30.33 in 5.0 mi ESE 6.9 mph - N/A   Haze
11:29 AM 64.4 °F 55.4 °F 73% 30.32 in 5.0 mi South 6.9 mph - N/A   Haze
11:53 AM 66.0 °F 55.0 °F 68% 30.30 in 6.0 mi South 5.8 mph - N/A   Haze
12:53 PM 70.0 °F 55.0 °F 59% 30.27 in 7.0 mi SSW 5.8 mph - N/A   Mostly Cloudy
1:53 PM 72.0 °F 55.0 °F 55% 30.25 in 8.0 mi SSW 4.6 mph - N/A   Partly Cloudy
2:53 PM 73.0 °F 54.0 °F 51% 30.24 in 8.0 mi SSW 10.4 mph - N/A   Clear
3:53 PM 72.0 °F 54.0 °F 53% 30.23 in 8.0 mi SW 6.9 mph - N/A   Partly Cloudy
4:53 PM 70.0 °F 55.0 °F 59% 30.24 in 8.0 mi SSW 3.5 mph - N/A   Mostly Cloudy
5:53 PM 68.0 °F 55.9 °F 65% 30.24 in 9.0 mi Calm Calm - N/A   Mostly Cloudy
6:53 PM 64.9 °F 55.9 °F 73% 30.24 in 8.0 mi Calm Calm - N/A   Overcast
7:53 PM 60.1 °F 55.0 °F 83% 30.24 in 7.0 mi Calm Calm - N/A   Partly Cloudy
8:53 PM 60.1 °F 55.0 °F 83% 30.24 in 6.0 mi Calm Calm - N/A   Haze
9:53 PM 57.0 °F 54.0 °F 89% 30.23 in 5.0 mi Calm Calm - N/A   Partly Cloudy
10:53 PM 55.9 °F 53.1 °F 90% 30.23 in 5.0 mi Calm Calm - N/A   Scattered Clouds
11:53 PM 55.9 °F 53.1 °F 90% 30.21 in 5.0 mi Calm Calm - N/A   Clear